This is the latest recevied weather packets stored in our database for station/object K4CRS-13. If no packets are shown the sender has not sent any weather packets the latest 10 day(s).
| Time | Temp. | Humidity | Pressure | Rain* | Wind** | Luminosity | Snow |
|---|---|---|---|---|---|---|---|
| 1777853884 | 20° C | 50% | 1052 hPa | 0 mm | - | 15 W/m² | - |
| 1777853581 | 20° C | 49% | 1052.1 hPa | 0 mm | - | 19 W/m² | - |
| 1777853278 | 20.56° C | 51% | 1052.2 hPa | 0 mm | - | 23 W/m² | - |
| 1777852974 | 20.56° C | 45% | 1052.1 hPa | 0 mm | - | 28 W/m² | - |
| 1777852672 | 21.11° C | 44% | 1052.1 hPa | 0 mm | - | 36 W/m² | - |
| 1777852369 | 20.56° C | 44% | 1052 hPa | 0 mm | - | 42 W/m² | - |
| 1777852067 | 20.56° C | 45% | 1052.1 hPa | 0 mm | - | 49 W/m² | - |
| 1777851765 | 20.56° C | 45% | 1052 hPa | 0 mm | - | 58 W/m² | - |
| 1777851462 | 20.56° C | 43% | 1052 hPa | 0 mm | - | 69 W/m² | - |
| 1777851158 | 20.56° C | 44% | 1052.2 hPa | 0 mm | - | 78 W/m² | - |
| 1777850855 | 21.11° C | 42% | 1052.4 hPa | 0 mm | - | 89 W/m² | - |
| 1777850552 | 21.11° C | 41% | 1052.2 hPa | 0 mm | - | 101 W/m² | - |
| 1777850250 | 20.56° C | 41% | 1052.2 hPa | 0 mm | - | 115 W/m² | - |
| 1777849946 | 20.56° C | 40% | 1052.1 hPa | 0 mm | - | 128 W/m² | - |
| 1777849642 | 21.11° C | 40% | 1052.3 hPa | 0 mm | - | 142 W/m² | - |
| 1777849340 | 20.56° C | 44% | 1052.3 hPa | 0 mm | - | 159 W/m² | - |
| 1777849037 | 20.56° C | 40% | 1052.3 hPa | 0 mm | - | 172 W/m² | - |
| 1777848737 | 20.56° C | 43% | 1052.3 hPa | 0 mm | - | 185 W/m² | - |
| 1777848435 | 20.56° C | 42% | 1052.5 hPa | 0 mm | - | 200 W/m² | - |
| 1777848133 | 20.56° C | 39% | 1052.5 hPa | 0 mm | - | 214 W/m² | - |
| 1777847830 | 20.56° C | 39% | 1052.6 hPa | 0 mm | - | 230 W/m² | - |
| 1777847527 | 21.11° C | 40% | 1052.6 hPa | 0 mm | - | 246 W/m² | - |
| 1777847224 | 21.11° C | 40% | 1052.8 hPa | 0 mm | - | 262 W/m² | - |
| 1777846921 | 20.56° C | 39% | 1052.5 hPa | 0 mm | - | 278 W/m² | - |
| 1777846620 | 20.56° C | 39% | 1052.5 hPa | 0 mm | - | 295 W/m² | - |
* Rain latest hour (hover to see other rain measurements)
** Current wind speed in m/s (hover to see current wind gust speed)